Location: Woodstock
(35.2731°N, 89.9823°W)
Time: 09:42:22
(UTC+00:00)

Vanguard 1 - Visible Passes

Search period start: 07 November 2024 00:00
Search period end: 17 November 2024 00:00
Orbit: 649 x 3824 km, 34.3° (Epoch: 06 November)

Date Brightness Start Highest point End Pass type
(mag) Time Alt. Az. Time Alt. Az. Time Alt. Az.
07 Nov 13.4 06:43:34 17° E 06:43:34 17° E 06:46:41 10° E visible
07 Nov 11.9 08:56:11 68° S 08:56:11 68° S 09:14:29 10° ESE visible
07 Nov 12.7 11:08:48 19° W 11:19:21 39° SSW 11:38:54 10° SSE visible
08 Nov 13.2 07:02:18 22° E 07:02:18 22° E 07:07:01 10° E visible
08 Nov 11.9 09:14:55 61° SSW 09:15:04 61° SSW 09:34:19 10° SE visible
08 Nov 13.0 11:27:31 13° W 11:39:15 32° SW 11:57:10 10° SSE visible
09 Nov 13.1 07:21:02 26° ESE 07:21:02 26° ESE 07:27:19 10° ESE visible
09 Nov 12.0 09:33:39 51° SW 09:34:57 52° SSW 09:53:51 10° SE visible
09 Nov 13.2 11:47:23 10° W 11:59:11 24° SW 12:14:47 10° S visible
10 Nov 12.9 07:39:46 31° ESE 07:39:46 31° ESE 07:47:30 10° ESE visible
10 Nov 12.2 09:52:24 41° SW 09:54:50 44° SSW 10:13:01 10° SE visible
11 Nov 12.7 07:58:32 34° SE 07:58:32 34° SE 08:07:30 10° ESE visible
11 Nov 12.4 10:11:09 32° SW 10:14:45 36° SSW 10:31:46 10° SSE visible
12 Nov 12.6 08:17:17 37° SE 08:17:17 37° SE 08:27:16 10° SE visible
12 Nov 12.7 10:29:54 24° WSW 10:34:41 28° SSW 10:49:59 10° SSE visible
13 Nov 11.8 01:26:00 10° SSW 01:26:09 11° SSW 01:26:09 11° SSW visible
13 Nov 12.6 08:36:02 36° SSE 08:36:02 36° SSE 08:46:45 10° SE visible
13 Nov 12.9 10:48:39 16° WSW 10:54:39 21° SSW 11:07:26 10° S visible
14 Nov 12.0 01:44:45 10° SW 01:44:51 10° SW 01:44:51 10° SW visible
14 Nov 12.6 08:54:47 34° S 08:54:47 34° S 09:05:51 10° SE visible
14 Nov 13.2 11:07:30 10° WSW 11:14:40 15° SW 11:23:32 10° S visible
15 Nov 13.7 07:00:54 10° ESE 07:00:54 10° ESE 07:01:06 10° ESE visible
15 Nov 12.7 09:13:30 29° S 09:13:30 29° S 09:24:31 10° SSE visible
16 Nov 11.2 00:05:45 10° S 00:08:06 14° SSE 00:09:34 12° SE visible
16 Nov 13.5 07:19:36 13° SE 07:19:36 13° SE 07:20:44 10° SE visible
16 Nov 12.9 09:32:13 23° SSW 09:32:13 23° SSW 09:42:34 10° SSE visible
